Location: Lombard
(41.8800°N, 88.0080°W)
Time: 09:32:46
(UTC-05:00)

A-11 Canister half - Pass Details

Date: 06 February 2023
Orbit: 1515 x 1684 km, 47.2° (Epoch: 26 September)

Event Time Altitude Azimuth Distance (km) Brightness Sun altitude
Rises 13:10:51 0° 279° (W) 4,810 11.7 30.7°
Reaches altitude 10° 13:14:03 10° 283° (WNW) 3,801 11.2 30.5°
Maximum altitude 13:23:36 64° 4° (N) 1,691 9.4 29.9°
Drops below altitude 10° 13:32:51 10° 86° (E) 3,690 10.8 29.2°
Sets 13:35:55 0° 89° (E) 4,663 11.3 29.0°
